| time (UTC) | temp F | wind direction | speed MPH | gust MPH | rain 1hr in | rain 24hr in | rain mn in | humidity % | barometer mb |
| 20260904042033 | 75 | 292 | 0.0 | 0.0 | 0.00 | 0.00 | 0.00 | 20 | 1012.6 |
| 20260904040130 | 76 | 22 | 0.0 | 1.0 | 0.00 | 0.00 | 0.00 | 16 | 1012.4 |
| 20260904034215 | 79 | 90 | 1.0 | 1.0 | 0.00 | 0.00 | 0.00 | 14 | 1012.3 |
| 20260904033217 | 80 | 90 | 1.0 | 1.0 | 0.00 | 0.00 | 0.00 | 14 | 1012.2 |
| 20260904032230 | 82 | 90 | 0.0 | 0.0 | 0.00 | 0.00 | 0.00 | 11 | 1012.1 |
| 20260904031315 | 82 | 90 | 0.0 | 0.0 | 0.00 | 0.00 | 0.00 | 10 | 1012.0 |
| 20260904030314 | 82 | 90 | 0.0 | 0.0 | 0.00 | 0.00 | 0.00 | 10 | 1012.0 |
| 20260904024415 | 84 | 202 | 0.0 | 0.0 | 0.00 | 0.00 | 0.00 | 8 | 1011.5 |
| 20260904023515 | 86 | 202 | 0.0 | 0.0 | 0.00 | 0.00 | 0.00 | 7 | 1011.4 |
| 20260904022517 | 86 | 234 | 2.0 | 4.0 | 0.00 | 0.00 | 0.00 | 7 | 1011.3 |
| 20260904021615 | 87 | 222 | 3.0 | 7.0 | 0.00 | 0.00 | 0.00 | 7 | 1011.3 |
| 20260904020617 | 88 | 212 | 4.0 | 6.0 | 0.00 | 0.00 | 0.00 | 5 | 1011.4 |
| 20260904020530 | 88 | 203 | 6.0 | 8.0 | 0.00 | 0.00 | 0.00 | 5 | 1011.3 |
| 20260904015615 | 89 | 230 | 5.0 | 8.0 | 0.00 | 0.00 | 0.00 | 6 | 1011.2 |
| 20260904012715 | 91 | 233 | 6.0 | 8.0 | 0.00 | 0.00 | 0.00 | 6 | 1011.2 |
| 20260904012629 | 91 | 234 | 7.0 | 11.0 | 0.00 | 0.00 | 0.00 | 6 | 1011.2 |
| 20260904011631 | 92 | 240 | 4.0 | 7.0 | 0.00 | 0.00 | 0.00 | 5 | 1011.0 |
| 20260904010717 | 93 | 211 | 7.0 | 12.0 | 0.00 | 0.00 | 0.00 | 5 | 1011.1 |
| 20260904005713 | 94 | 196 | 6.0 | 9.0 | 0.00 | 0.00 | 0.00 | 6 | 1011.2 |
| 20260904004732 | 94 | 195 | 4.0 | 6.0 | 0.00 | 0.00 | 0.00 | 6 | 1011.2 |
| 20260904002814 | 94 | 183 | 10.0 | 16.0 | 0.00 | 0.00 | 0.00 | 5 | 1011.1 |
| 20260904001831 | 95 | 179 | 7.0 | 12.0 | 0.00 | 0.00 | 0.00 | 5 | 1011.1 |
| 20260904000832 | 95 | 169 | 5.0 | 8.0 | 0.00 | 0.00 | 0.00 | 4 | 1011.2 |
| 20260903235914 | 95 | 180 | 5.0 | 10.0 | 0.00 | 0.00 | 0.00 | 5 | 1011.3 |
| 20260903234914 | 95 | 183 | 9.0 | 14.0 | 0.00 | 0.00 | 0.00 | 5 | 1011.2 |
| 20260903234832 | 95 | 184 | 8.0 | 12.0 | 0.00 | 0.00 | 0.00 | 4 | 1011.3 |
| 20260903233913 | 95 | 204 | 9.0 | 13.0 | 0.00 | 0.00 | 0.00 | 5 | 1011.4 |
| 20260903232916 | 95 | 195 | 9.0 | 12.0 | 0.00 | 0.00 | 0.00 | 6 | 1011.6 |
| 20260903232014 | 94 | 196 | 6.0 | 9.0 | 0.00 | 0.00 | 0.00 | 6 | 1011.6 |
| 20260903230115 | 94 | 241 | 12.0 | 16.0 | 0.00 | 0.00 | 0.00 | 6 | 1011.8 |
| 20260903225131 | 95 | 253 | 14.0 | 18.0 | 0.00 | 0.00 | 0.00 | 7 | 1011.8 |
| 20260903224213 | 95 | 174 | 6.0 | 9.0 | 0.00 | 0.00 | 0.00 | 6 | 1011.9 |
| 20260903223232 | 95 | 194 | 6.0 | 11.0 | 0.00 | 0.00 | 0.00 | 6 | 1012.1 |
| 20260903222232 | 94 | 168 | 8.0 | 14.0 | 0.00 | 0.00 | 0.00 | 8 | 1012.2 |
| 20260903221216 | 93 | 294 | 1.0 | 6.0 | 0.00 | 0.00 | 0.00 | 8 | 1012.4 |
| 20260903220214 | 94 | 160 | 4.0 | 9.0 | 0.00 | 0.00 | 0.00 | 8 | 1012.5 |
| 20260903215229 | 93 | 243 | 5.0 | 9.0 | 0.00 | 0.00 | 0.00 | 7 | 1012.7 |
| 20260903214313 | 92 | 229 | 5.0 | 8.0 | 0.00 | 0.00 | 0.00 | 8 | 1012.8 |
| 20260903212413 | 92 | 353 | 1.0 | 4.0 | 0.00 | 0.00 | 0.00 | 8 | 1012.9 |
| 20260903211429 | 93 | 288 | 5.0 | 7.0 | 0.00 | 0.00 | 0.00 | 8 | 1013.0 |
| 20260903210515 | 93 | 228 | 6.0 | 12.0 | 0.00 | 0.00 | 0.00 | 8 | 1013.1 |
| 20260903205514 | 93 | 217 | 8.0 | 10.0 | 0.00 | 0.00 | 0.00 | 9 | 1013.1 |
| 20260903205432 | 93 | 163 | 3.0 | 8.0 | 0.00 | 0.00 | 0.00 | 8 | 1013.1 |
| 20260903203530 | 93 | 212 | 10.0 | 15.0 | 0.00 | 0.00 | 0.00 | 8 | 1013.6 |
| 20260903202515 | 92 | 107 | 0.0 | 2.0 | 0.00 | 0.00 | 0.00 | 8 | 1013.6 |
| 20260903194614 | 92 | 175 | 7.0 | 12.0 | 0.00 | 0.00 | 0.00 | 8 | 1014.2 |
| 20260903193631 | 92 | 105 | 2.0 | 5.0 | 0.00 | 0.00 | 0.00 | 10 | 1014.2 |
| 20260903193513 | 92 | 110 | 5.0 | 7.0 | 0.00 | 0.00 | 0.00 | 9 | 1014.3 |
| 20260903192516 | 91 | 191 | 6.0 | 10.0 | 0.00 | 0.00 | 0.00 | 9 | 1014.6 |
| 20260903191515 | 90 | 209 | 3.0 | 5.0 | 0.00 | 0.00 | 0.00 | 11 | 1014.6 |
| 20260903190514 | 91 | 198 | 1.0 | 4.0 | 0.00 | 0.00 | 0.00 | 11 | 1014.8 |
| 20260903185613 | 90 | 112 | 2.0 | 4.0 | 0.00 | 0.00 | 0.00 | 11 | 1015.0 |
| 20260903184713 | 89 | 240 | 1.0 | 6.0 | 0.00 | 0.00 | 0.00 | 11 | 1015.2 |
| 20260903183714 | 88 | 321 | 3.0 | 5.0 | 0.00 | 0.00 | 0.00 | 13 | 1015.6 |
| 20260903182813 | 88 | 270 | 3.0 | 4.0 | 0.00 | 0.00 | 0.00 | 14 | 1015.5 |
| 20260903181831 | 87 | 247 | 1.0 | 2.0 | 0.00 | 0.00 | 0.00 | 13 | 1015.5 |
| 20260903180914 | 88 | 265 | 0.0 | 2.0 | 0.00 | 0.00 | 0.00 | 15 | 1015.9 |
| 20260903175929 | 87 | 239 | 2.0 | 3.0 | 0.00 | 0.00 | 0.00 | 14 | 1015.8 |
| 20260903174915 | 87 | 156 | 6.0 | 8.0 | 0.00 | 0.00 | 0.00 | 15 | 1016.0 |
| 20260903174014 | 87 | 202 | 0.0 | 1.0 | 0.00 | 0.00 | 0.00 | 17 | 1016.0 |
| 20260903173015 | 86 | 184 | 0.0 | 4.0 | 0.00 | 0.00 | 0.00 | 16 | 1016.0 |
| 20260903172014 | 87 | 214 | 2.0 | 4.0 | 0.00 | 0.00 | 0.00 | 17 | 1016.0 |
| 20260903171015 | 85 | 202 | 1.0 | 3.0 | 0.00 | 0.00 | 0.00 | 17 | 1016.0 |
| 20260903170014 | 84 | 237 | 0.0 | 3.0 | 0.00 | 0.00 | 0.00 | 17 | 1016.0 |
| 20260903165016 | 83 | 195 | 1.0 | 3.0 | 0.00 | 0.00 | 0.00 | 18 | 1016.2 |
| 20260903164914 | 83 | 197 | 2.0 | 4.0 | 0.00 | 0.00 | 0.00 | 18 | 1016.1 |
| 20260903163915 | 82 | 225 | 0.0 | 0.0 | 0.00 | 0.00 | 0.00 | 17 | 1016.2 |
| 20260903161014 | 79 | 247 | 0.0 | 0.0 | 0.00 | 0.00 | 0.00 | 19 | 1016.4 |
| 20260903160014 | 78 | 282 | 1.0 | 1.0 | 0.00 | 0.00 | 0.00 | 18 | 1016.5 |
| 20260903155029 | 79 | 337 | 0.0 | 0.0 | 0.00 | 0.00 | 0.00 | 18 | 1016.6 |
| 20260903154115 | 79 | 337 | 1.0 | 1.0 | 0.00 | 0.00 | 0.00 | 17 | 1016.7 |
| 20260903153113 | 78 | 337 | 1.0 | 1.0 | 0.00 | 0.00 | 0.00 | 19 | 1016.6 |
| 20260903152131 | 75 | 337 | 0.0 | 1.0 | 0.00 | 0.00 | 0.00 | 22 | 1016.8 |
| 20260903151114 | 74 | 320 | 0.0 | 2.0 | 0.00 | 0.00 | 0.00 | 23 | 1016.7 |
| 20260903150113 | 74 | 360 | 0.0 | 1.0 | 0.00 | 0.00 | 0.00 | 25 | 1016.7 |
| 20260903145114 | 72 | 360 | 0.0 | 0.0 | 0.00 | 0.00 | 0.00 | 27 | 1016.8 |
| 20260903144115 | 69 | 360 | 0.0 | 0.0 | 0.00 | 0.00 | 0.00 | 28 | 1016.7 |
| 20260903143114 | 66 | 270 | 0.0 | 0.0 | 0.00 | 0.00 | 0.00 | 29 | 1016.7 |
| 20260903142114 | 64 | 270 | 0.0 | 0.0 | 0.00 | 0.00 | 0.00 | 32 | 1016.7 |
| 20260903141115 | 63 | 260 | 2.0 | 3.0 | 0.00 | 0.00 | 0.00 | 36 | 1016.7 |
| 20260903140129 | 62 | 337 | 0.0 | 0.0 | 0.00 | 0.00 | 0.00 | 40 | 1016.5 |
| 20260903135128 | 61 | 337 | 0.0 | 0.0 | 0.00 | 0.00 | 0.00 | 41 | 1016.6 |
| 20260903134128 | 60 | 337 | 0.0 | 0.0 | 0.00 | 0.00 | 0.00 | 41 | 1016.5 |
| 20260903133115 | 60 | 337 | 0.0 | 0.0 | 0.00 | 0.00 | 0.00 | 42 | 1016.4 |
| 20260903133012 | 60 | 337 | 0.0 | 0.0 | 0.00 | 0.00 | 0.00 | 41 | 1016.3 |
| 20260903132112 | 60 | 337 | 0.0 | 0.0 | 0.00 | 0.00 | 0.00 | 40 | 1016.2 |
| 20260903131116 | 61 | 337 | 0.0 | 0.0 | 0.00 | 0.00 | 0.00 | 35 | 1016.2 |
| 20260903130212 | 62 | 337 | 0.0 | 1.0 | 0.00 | 0.00 | 0.00 | 31 | 1016.0 |
| 20260903130129 | 62 | 337 | 1.0 | 2.0 | 0.00 | 0.00 | 0.00 | 32 | 1016.1 |
| 20260903125229 | 61 | 302 | 4.0 | 5.0 | 0.00 | 0.00 | 0.00 | 35 | 1016.1 |
| 20260903124214 | 61 | 315 | 0.0 | 2.0 | 0.00 | 0.00 | 0.00 | 37 | 1016.0 |
| 20260903122328 | 62 | 292 | 0.0 | 0.0 | 0.00 | 0.00 | 0.00 | 34 | 1016.0 |
| 20260903120313 | 61 | 22 | 0.0 | 1.0 | 0.00 | 0.00 | 0.00 | 36 | 1016.0 |
| 20260903114330 | 62 | 337 | 0.0 | 0.0 | 0.00 | 0.00 | 0.00 | 35 | 1016.0 |
| 20260903113414 | 63 | 337 | 0.0 | 0.0 | 0.00 | 0.00 | 0.00 | 31 | 1015.9 |
| 20260903112414 | 63 | 337 | 0.0 | 1.0 | 0.00 | 0.00 | 0.00 | 30 | 1015.9 |
| 20260903111512 | 63 | 22 | 0.0 | 0.0 | 0.00 | 0.00 | 0.00 | 29 | 1015.8 |
| 20260903105515 | 64 | 36 | 1.0 | 4.0 | 0.00 | 0.00 | 0.00 | 29 | 1015.8 |
| 20260903104531 | 64 | 321 | 2.0 | 3.0 | 0.00 | 0.00 | 0.00 | 29 | 1015.7 |
| 20260903103613 | 65 | 360 | 0.0 | 0.0 | 0.00 | 0.00 | 0.00 | 30 | 1015.7 |
| 20260903102712 | 66 | 22 | 4.0 | 5.0 | 0.00 | 0.00 | 0.00 | 29 | 1015.6 |
| 20260903102613 | 66 | 346 | 2.0 | 4.0 | 0.00 | 0.00 | 0.00 | 29 | 1015.7 |
| 20260903101711 | 66 | 295 | 3.0 | 4.0 | 0.00 | 0.00 | 0.00 | 26 | 1015.7 |
| 20260903100713 | 66 | 337 | 2.0 | 3.0 | 0.00 | 0.00 | 0.00 | 29 | 1015.8 |
| 20260903095730 | 66 | 360 | 1.0 | 2.0 | 0.00 | 0.00 | 0.00 | 28 | 1015.7 |
| 20260903094814 | 66 | 337 | 1.0 | 3.0 | 0.00 | 0.00 | 0.00 | 28 | 1015.6 |
| 20260903093814 | 67 | 225 | 0.0 | 0.0 | 0.00 | 0.00 | 0.00 | 28 | 1015.6 |
| 20260903092831 | 69 | 225 | 0.0 | 0.0 | 0.00 | 0.00 | 0.00 | 25 | 1015.5 |
| 20260903091915 | 70 | 180 | 0.0 | 0.0 | 0.00 | 0.00 | 0.00 | 21 | 1015.4 |
| 20260903091814 | 71 | 180 | 0.0 | 0.0 | 0.00 | 0.00 | 0.00 | 21 | 1015.5 |
| 20260903090913 | 72 | 157 | 0.0 | 0.0 | 0.00 | 0.00 | 0.00 | 18 | 1015.4 |
| 20260903085914 | 73 | 150 | 1.0 | 3.0 | 0.00 | 0.00 | 0.00 | 17 | 1015.3 |
| 20260903084914 | 74 | 157 | 0.0 | 1.0 | 0.00 | 0.00 | 0.00 | 15 | 1015.3 |
| 20260903084012 | 75 | 112 | 0.0 | 1.0 | 0.00 | 0.00 | 0.00 | 15 | 1015.5 |
| 20260903083929 | 75 | 112 | 0.0 | 2.0 | 0.00 | 0.00 | 0.00 | 14 | 1015.5 |
| 20260903081015 | 74 | 85 | 3.0 | 4.0 | 0.00 | 0.00 | 0.00 | 17 | 1015.4 |
| 20260903080013 | 73 | 90 | 3.0 | 3.0 | 0.00 | 0.00 | 0.00 | 19 | 1015.3 |
| 20260903075030 | 73 | 225 | 0.0 | 0.0 | 0.00 | 0.00 | 0.00 | 18 | 1015.4 |
| 20260903074114 | 75 | 74 | 4.0 | 6.0 | 0.00 | 0.00 | 0.00 | 16 | 1015.3 |
| 20260903073212 | 75 | 238 | 3.0 | 4.0 | 0.00 | 0.00 | 0.00 | 17 | 1015.3 |
| 20260903072213 | 75 | 90 | 2.0 | 2.0 | 0.00 | 0.00 | 0.00 | 14 | 1015.2 |
| 20260903071230 | 76 | 80 | 2.0 | 3.0 | 0.00 | 0.00 | 0.00 | 16 | 1015.2 |
| 20260903070314 | 76 | 90 | 2.0 | 3.0 | 0.00 | 0.00 | 0.00 | 14 | 1015.2 |
| 20260903065329 | 76 | 68 | 4.0 | 5.0 | 0.00 | 0.00 | 0.00 | 15 | 1015.0 |
| 20260903064413 | 75 | 61 | 2.0 | 5.0 | 0.00 | 0.00 | 0.00 | 16 | 1015.1 |
| 20260903063412 | 76 | 121 | 0.0 | 2.0 | 0.00 | 0.00 | 0.00 | 15 | 1014.9 |
| 20260903062414 | 76 | 67 | 2.0 | 4.0 | 0.00 | 0.00 | 0.00 | 16 | 1015.0 |
| 20260903060427 | 77 | 47 | 3.0 | 4.0 | 0.00 | 0.00 | 0.00 | 15 | 1014.7 |
| 20260903055413 | 77 | 67 | 2.0 | 3.0 | 0.00 | 0.00 | 0.00 | 15 | 1014.9 |
| 20260903055314 | 77 | 67 | 2.0 | 3.0 | 0.00 | 0.00 | 0.00 | 15 | 1014.9 |
| 20260903054333 | 76 | 90 | 2.0 | 3.0 | 0.00 | 0.00 | 0.00 | 15 | 1014.8 |
| 20260903053430 | 74 | 142 | 1.0 | 5.0 | 0.00 | 0.00 | 0.00 | 18 | 1014.8 |
| 20260903052530 | 74 | 270 | 0.0 | 0.0 | 0.00 | 0.00 | 0.00 | 18 | 1014.7 |
| 20260903051515 | 75 | 273 | 1.0 | 3.0 | 0.00 | 0.00 | 0.00 | 18 | 1014.7 |
| 20260903050515 | 76 | 63 | 2.0 | 3.0 | 0.00 | 0.00 | 0.00 | 17 | 1014.7 |
| 20260903045613 | 76 | 27 | 0.0 | 3.0 | 0.00 | 0.00 | 0.00 | 17 | 1014.6 |
| 20260903044615 | 77 | 247 | 0.0 | 0.0 | 0.00 | 0.00 | 0.00 | 16 | 1014.6 |
| 20260903043629 | 79 | 234 | 0.0 | 0.0 | 0.00 | 0.00 | 0.00 | 13 | 1014.5 |
| 20260903042716 | 79 | 292 | 3.0 | 4.0 | 0.00 | 0.00 | 0.00 | 14 | 1014.6 |